Flag for U.S.A. Weather past 2 weeks in Stillwater, Minnesota, U.S.A.

Now
41 °F

Clear.


Feels Like: 37 °F
Forecast: 32 / 60 °F
Wind: 6 mph from Northeast

Location: St. Paul Downtown Holman Field

Current Time: Apr 26, 2015 at 3:31:47 AM

Latest Report: Apr 26, 2015 at 2:53 AM


Visibility: 10 mi

Pressure: 30.03 "Hg

Humidity: 43%

Dew point: 20 °F

Location of StillwaterLocation

Historic Weather in Stillwater — Graph

°F

Stillwater temperature yesterday

Maximum temperature yesterday: 61 °F (at 4:53 PM)
Minimum temperature yesterday: 43 °F (at 4:53 AM)
Average temperature yesterday: 50 °F

Past Weeks' High & Low Weather Summary

 TemperatureHumidityPressure
High75 °F (Apr 12, 3:53 PM)96% (Apr 11, 4:53 AM)30.28 "Hg (Apr 11, 4:53 AM)
Low28 °F (Apr 23, 6:53 AM)11% (Apr 23, 5:53 PM)29.50 "Hg (Apr 20, 5:53 AM)
Average52 °F50%29.92 "Hg
* Reported Apr 11 1:53 AM — Apr 26 1:53 AM, Stillwater, Weather by CustomWeather, © 2015

Note: Actual official high and low records may vary slightly from our data, if they occured in-between our weather recording intervals... More about our weather records

Advertising

Stillwater weather history for previous 24 hours

 ConditionsComfort  
Time TempWeatherWind HumidityBarometerVisibility
1:53 AM
Sun, Apr 26
43 °FClear.6 mph40%30.03 "Hg10 mi
12:53 AM45 °FClear.6 mph40%30.01 "Hg10 mi
11:53 PM
Sat, Apr 25
47 °FClear.6 mph41%29.99 "Hg10 mi
10:53 PM50 °FClear.10 mph39%29.97 "Hg10 mi
9:53 PM53 °FClear.10 mph39%29.94 "Hg10 mi
8:53 PM54 °FSunny.No wind31%29.91 "Hg10 mi
7:53 PM58 °FSunny.5 mph24%29.89 "Hg10 mi
6:53 PM60 °FSunny.10 mph20%29.87 "Hg10 mi
5:53 PM61 °FSunny.10 mph18%29.86 "Hg10 mi
4:53 PM61 °FSunny.8 mph22%29.85 "Hg10 mi
3:53 PM60 °FSunny.13 mph27%29.85 "Hg10 mi
2:53 PM60 °FSunny.16 mph33%29.85 "Hg10 mi
1:53 PM58 °FPassing clouds.15 mph43%29.85 "Hg10 mi
12:53 PM56 °FSunny.15 mph46%29.86 "Hg10 mi
11:53 AM53 °FPassing clouds.14 mph51%29.88 "Hg10 mi
10:53 AM50 °FScattered clouds.13 mph57%29.89 "Hg10 mi
9:53 AM49 °FPassing clouds.14 mph61%29.88 "Hg10 mi
8:53 AM45 °FOvercast.8 mph71%29.87 "Hg10 mi
7:53 AM43 °FOvercast.8 mph79%29.86 "Hg10 mi
7:03 AM43 °FOvercast.12 mph76%29.84 "Hg10 mi
6:53 AM43 °FMostly cloudy.9 mph76%29.85 "Hg10 mi
6:04 AM43 °FMostly cloudy.7 mph76%29.83 "Hg10 mi
5:53 AM43 °FMostly cloudy.10 mph79%29.84 "Hg10 mi
4:53 AM43 °FOvercast.10 mph79%29.83 "Hg10 mi
3:53 AM44 °FOvercast.13 mph79%29.83 "Hg10 mi
Weather by CustomWeather, © 2015

See weather overviewHow to use our weather pages